"Pseudo-MPEC" for C465R01

Created 2026 Apr 12 4:35:04 UT using Find_Orb

Click here for an explanation of pseudo-MPECs

 
 Astrometry: 
     C465R01*1C2026 04 07.16678411 51 05.897+07 17 47.29   ~474Z 16.54GVNEOCP703
     C465R01 1C2026 04 07.16907911 51 25.254+07 12 14.51   ~474Z 16.80GVNEOCP703
     C465R01 1C2026 04 07.17137511 51 44.629+07 06 40.00   ~474Z 16.35GVNEOCP703
     C465R01 1C2026 04 07.17366711 52 04.040+07 01 04.55   ~474Z 16.98GVNEOCP703

Station data:
(703) Catalina Sky Survey  (N32.417029 W110.732640)  US/Arizona.  Observer E.
   J. Christensen. Measurers T. Beuden, V. F. Carvajal, D. Fay, J. B.
   Fazekas, D. C. Fuls, A. R. Gibbs, A. D. Grauer, H. Gröller, J. K. Hogan,
   R. A. Kowalski, S. M. Larson, G. J. Leonard, D. Rankin, R. L. Seaman, F.
   C. Shelly, K. W. Wierzchoś. 0.68 m Schmidt + 10K CCD.

Orbital elements:  C465R01
   Perigee 2026 Apr 6.702212 +/- 27 TT = 16:51:11.1 (JD 2461137.202212)
Epoch 2026 Apr  7.0 TT = JDT 2461137.5                           AutoNEOCP
q626027.5561 +/- 2.14e+7            (J2000 equator)
H   27.42 G 0.15                    Peri.  138.173722 +/- 43
                                    Node     4.379719 +/- 37
e 143.80557691 +/- 0.252            Incl.   47.947766 +/- 2.1
From 4 observations 2026 Apr. 7 (9.9 min); mean residual 1".02
Residuals in arcseconds: 
260407 703  .78+  1.2-    260407 703  .96-  1.2+    
260407 703  .68-  1.2+    260407 703  .86+  1.2-    

Ephemerides (geocentric):
Date (UTC) HH   RA             Dec           delta  r     elong  mag " sig PA
---- --------  ------------   ------------  ------ ------ -----  --- --------
2026 04 12 05  14 16 49.793   -28 51 50.46  .03073 1.0304 155.8 21.0  47d  83
2026 04 12 06  14 17 01.716   -28 54 01.28  .03096 1.0307 155.8 21.0  47d  83
2026 04 12 07  14 17 13.466   -28 56 10.01  .03119 1.0309 155.8 21.1  47d  83
2026 04 12 08  14 17 25.047   -28 58 16.71  .03142 1.0311 155.8 21.1  47d  83
2026 04 12 09  14 17 36.461   -29 00 21.41  .03164 1.0313 155.7 21.1  47d  83
2026 04 12 10  14 17 47.713   -29 02 24.17  .03187 1.0315 155.7 21.1  47d  83
2026 04 12 11  14 17 58.805   -29 04 25.02  .03210 1.0318 155.7 21.1  47d  83
2026 04 12 12  14 18 09.740   -29 06 24.00  .03233 1.0320 155.7 21.1  47d  83
2026 04 12 13  14 18 20.523   -29 08 21.15  .03256 1.0322 155.7 21.2  47d  83
2026 04 12 14  14 18 31.155   -29 10 16.52  .03279 1.0324 155.7 21.2  47d  83
2026 04 12 15  14 18 41.640   -29 12 10.13  .03302 1.0326 155.6 21.2  47d  83
2026 04 12 16  14 18 51.980   -29 14 02.03  .03325 1.0328 155.6 21.2  47d  83
2026 04 12 17  14 19 02.179   -29 15 52.25  .03348 1.0331 155.6 21.2  47d  83
2026 04 12 18  14 19 12.238   -29 17 40.83  .03371 1.0333 155.6 21.2  47d  84
2026 04 12 19  14 19 22.161   -29 19 27.79  .03394 1.0335 155.6 21.3  46d  84
2026 04 12 20  14 19 31.951   -29 21 13.17  .03417 1.0337 155.6 21.3  51d  82
2026 04 12 21  14 19 41.609   -29 22 57.00  .03440 1.0339 155.6 21.3  49d  81
2026 04 12 22  14 19 51.138   -29 24 39.32  .03463 1.0342 155.6 21.3  49d  81
2026 04 12 23  14 20 00.541   -29 26 20.15  .03486 1.0344 155.5 21.3  48d  82
2026 04 13 00  14 20 09.819   -29 27 59.51  .03509 1.0346 155.5 21.3  48d  82
2026 04 13 01  14 20 18.976   -29 29 37.45  .03532 1.0348 155.5 21.3  48d  82
2026 04 13 02  14 20 28.013   -29 31 13.99  .03555 1.0350 155.5 21.4  48d  82
2026 04 13 03  14 20 36.933   -29 32 49.15  .03578 1.0353 155.5 21.4  48d  82
2026 04 13 04  14 20 45.737   -29 34 22.96  .03601 1.0355 155.5 21.4  48d  82
2026 04 13 05  14 20 54.428   -29 35 55.45  .03624 1.0357 155.5 21.4  48d  82
2026 04 13 06  14 21 03.007   -29 37 26.64  .03647 1.0359 155.5 21.4  48d  82
2026 04 13 07  14 21 11.477   -29 38 56.56  .03670 1.0361 155.5 21.4  48d  82
2026 04 13 08  14 21 19.840   -29 40 25.22  .03693 1.0364 155.5 21.4  48d  82
2026 04 13 09  14 21 28.097   -29 41 52.66  .03716 1.0366 155.5 21.5  48d  82
2026 04 13 10  14 21 36.251   -29 43 18.89  .03739 1.0368 155.5 21.5  48d  82
2026 04 13 11  14 21 44.302   -29 44 43.93  .03762 1.0370 155.5 21.5  48d  82
2026 04 13 12  14 21 52.253   -29 46 07.82  .03785 1.0373 155.5 21.5  48d  82
2026 04 13 13  14 22 00.106   -29 47 30.56  .03808 1.0375 155.5 21.5  48d  82
2026 04 13 14  14 22 07.862   -29 48 52.18  .03831 1.0377 155.5 21.5  48d  82
2026 04 13 15  14 22 15.522   -29 50 12.70  .03854 1.0379 155.5 21.5  47d  82
2026 04 13 16  14 22 23.089   -29 51 32.14  .03877 1.0381 155.5 21.6  47d  82
2026 04 13 17  14 22 30.564   -29 52 50.52  .03900 1.0384 155.5 21.6  47d  82
2026 04 13 18  14 22 37.949   -29 54 07.86  .03923 1.0386 155.5 21.6  47d  82
2026 04 13 19  14 22 45.244   -29 55 24.16  .03946 1.0388 155.4 21.6  47d  82
2026 04 13 20  14 22 52.452   -29 56 39.46  .03969 1.0390 155.4 21.6  47d  82
2026 04 13 21  14 22 59.574   -29 57 53.77  .03992 1.0393 155.5 21.6  47d  82
2026 04 13 22  14 23 06.610   -29 59 07.10  .04015 1.0395 155.5 21.6  47d  82
2026 04 13 23  14 23 13.564   -30 00 19.48  .04038 1.0397 155.5 21.6  47d  82
2026 04 14 00  14 23 20.435   -30 01 30.91  .04061 1.0399 155.5 21.7  47d  82
2026 04 14 01  14 23 27.226   -30 02 41.42  .04085 1.0402 155.5 21.7  47d  82
2026 04 14 02  14 23 33.937   -30 03 51.01  .04108 1.0404 155.5 21.7  47d  82
2026 04 14 03  14 23 40.570   -30 04 59.72  .04131 1.0406 155.5 21.7  47d  83
2026 04 14 04  14 23 47.125   -30 06 07.53  .04154 1.0408 155.5 21.7  47d  83